[[{"header":{"parameterUnit":"m.s-1","parameterCategory":1,"la1":30.2991,"la2":30.254,"lo1":-89.0895,"lo2":-89.0444,"dy":0.0017,"dx":0.0017,"nx":28,"ny":28,"refTime":"2024-12-08T03:00:00:Z","depth":0,"parameterNumber":2,"parameterNumberName":"U-component_of_WINDS"},"data":[0,0,0,0,0,0,0,0,0,0,0,0,0,0,0,0,0,0,0,0,0,0,0,0,0,0,0,0,0,0,0,0,0,0,0,0,0,0,0,0,0,0,0,0,0,0,0,0,0,0,0,0,0,0,0,0,0,0,-0.2398,-0.2397,0,-0.2306,-0.2304,-0.2303,-0.2342,-0.2344,-0.2346,-0.2349,-0.2247,-0.2242,-0.2237,0,0,0,0,0,0,0,0,0,0,0,0,0,-0.2601,-0.2597,-0.2398,-0.2397,-0.2395,-0.2306,-0.2304,-0.2303,-0.2342,-0.2344,-0.2347,-0.235,-0.2248,-0.2243,-0.2237,0,0,0,0,0,0,0,0,0,0,0,0,0,-0.2511,-0.2596,-0.2398,-0.2404,-0.2404,-0.2306,-0.2304,-0.2303,-0.2341,-0.2344,-0.2348,-0.2351,-0.225,-0.2243,-0.2236,-0.2125,0,0,-0.2214,-0.2211,0,0,0,0,0,0,0,0,-0.2516,-0.2503,-0.2404,-0.2403,-0.2403,-0.2339,-0.2339,-0.2243,-0.234,-0.2364,-0.2349,-0.2352,-0.2274,-0.2265,-0.224,-0.212,-0.2116,-0.2214,-0.2209,-0.2206,-0.2204,0,0,0,0,0,0,0,-0.2522,-0.2507,-0.2361,-0.2403,-0.2402,-0.2409,-0.24,-0.2321,-0.2301,-0.2363,-0.2365,-0.2354,-0.2274,-0.2247,-0.2238,-0.2114,-0.2214,-0.2207,-0.2203,-0.22,-0.1898,-0.1894,0,0,0,0,0,0,-0.2529,-0.2512,-0.2364,-0.2358,-0.2469,-0.2403,-0.2393,-0.2356,-0.2303,-0.2298,-0.2351,-0.2356,-0.2258,-0.2247,-0.2235,-0.2101,-0.2206,-0.22,-0.2195,-0.1901,-0.1897,-0.1893,0,0,0,0,0,0,-0.2533,-0.2516,-0.2368,-0.2436,-0.2418,-0.2396,-0.2354,-0.2352,-0.2325,-0.2294,-0.229,-0.2328,-0.226,-0.2245,-0.2152,-0.2098,-0.2196,-0.219,-0.1906,-0.19,-0.1895,-0.1832,0,0,0,0,0,0,-0.2539,-0.2517,-0.2476,-0.2435,-0.2414,-0.2288,-0.2351,-0.2348,-0.2314,-0.2319,-0.2271,-0.2266,-0.2262,-0.2163,-0.2145,-0.209,-0.2184,-0.1911,-0.1903,-0.1897,-0.1838,-0.1825,-0.1813,0,0,0,0,0,-0.2546,-0.246,-0.2474,-0.2455,-0.2363,-0.2285,-0.2273,-0.2272,-0.2309,-0.2266,-0.2247,-0.2267,-0.2107,-0.2153,-0.2134,-0.2075,-0.1914,-0.1905,-0.1897,-0.1844,-0.1827,-0.1813,0,0,0,0,0,0,-0.2492,-0.2455,-0.2469,-0.2368,-0.233,-0.2292,-0.2238,-0.2254,-0.2203,-0.221,-0.2208,-0.2197,-0.2101,-0.2079,-0.2131,-0.1964,-0.2016,-0.2003,-0.1982,-0.1966,-0.1953,-0.196,-0.2178,0,0,0,0,0,-0.2469,-0.2412,-0.2381,-0.2295,-0.2275,-0.226,-0.2226,-0.2229,-0.2188,-0.2172,-0.2145,-0.2103,-0.2043,-0.2003,-0.1947,-0.1836,-0.1825,-0.1786,-0.1773,-0.1763,-0.1751,-0.169,-0.1672,-0.1865,-0.1865,-0.1866,0,0,-0.242,-0.2392,-0.2355,-0.2283,-0.2254,-0.2192,-0.2246,-0.2178,-0.2132,-0.2161,-0.2072,-0.2051,-0.2004,-0.1902,-0.1856,-0.188,-0.1696,-0.1752,-0.1744,-0.1738,-0.168,-0.1661,-0.1645,-0.186,-0.1861,-0.1862,0,0,-0.2298,-0.2272,-0.2197,-0.2167,-0.2124,-0.2114,-0.2096,-0.2056,-0.2044,-0.1956,-0.1976,-0.192,-0.1817,-0.1783,-0.1752,-0.1618,-0.1635,-0.16,-0.1532,-0.1472,-0.1457,-0.1443,-0.1395,-0.1377,-0.1589,-0.1589,-0.1588,0,-0.2241,-0.2152,-0.2156,-0.2087,-0.2054,-0.208,-0.2003,-0.1973,-0.1911,-0.1887,-0.1917,-0.1789,-0.1759,-0.1649,-0.1617,-0.1591,-0.1569,-0.1604,-0.1459,-0.1446,-0.1433,-0.1387,-0.1368,-0.1584,-0.1585,-0.1585,-0.1586,0,-0.2084,-0.2021,-0.1965,-0.1908,-0.1869,-0.1796,-0.1787,-0.1747,-0.1753,-0.174,-0.165,-0.1615,-0.1552,-0.1526,-0.1531,-0.1416,-0.1433,-0.1461,-0.1512,-0.1411,-0.1367,-0.1349,-0.1579,-0.158,-0.1581,-0.1582,0,0,-0.1924,-0.1871,-0.1851,-0.1825,-0.1779,-0.1729,-0.1658,-0.1598,-0.1563,-0.152,-0.1458,-0.1372,-0.1397,-0.1362,-0.1363,-0.1311,-0.1207,-0.1345,-0.1344,-0.132,-0.1077,-0.1056,-0.1035,-0.1218,-0.1215,-0.1212,-0.1081,0,-0.1798,-0.1674,-0.1676,-0.156,-0.1502,-0.1526,-0.1463,-0.1427,-0.1413,-0.136,-0.1344,-0.1282,-0.1321,-0.13,-0.125,-0.123,-0.1158,-0.124,-0.1159,-0.1156,-0.1168,-0.1012,-0.0989,-0.0867,-0.1064,-0.1061,-0.1059,0,-0.1634,-0.1589,-0.1467,-0.1431,-0.1406,-0.135,-0.1295,-0.1245,-0.1204,-0.1197,-0.1159,-0.1168,-0.1093,-0.1149,-0.1044,-0.11,-0.1067,-0.1052,-0.1047,-0.1038,-0.11,-0.0998,-0.0828,-0.0809,-0.1032,-0.1034,-0.1036,0,-0.1529,-0.1436,-0.1352,-0.133,-0.1284,-0.1244,-0.1223,-0.1186,-0.115,-0.1102,-0.1078,-0.1021,-0.099,-0.0944,-0.0937,-0.0979,-0.0832,-0.0887,-0.0823,-0.0823,-0.0789,-0.0791,-0.061,-0.077,-0.0771,-0.0771,-0.0771,0,-0.1387,-0.1311,-0.1304,-0.1252,-0.1168,-0.117,-0.1086,-0.1069,-0.1035,-0.0979,-0.0996,-0.0942,-0.0937,-0.0881,-0.0875,-0.0789,-0.0775,-0.0766,-0.0765,-0.0763,-0.0764,-0.074,-0.0748,-0.0766,-0.0767,-0.0768,-0.0769,0,-0.1254,-0.1246,-0.1156,-0.1121,-0.1111,-0.105,-0.102,-0.0969,-0.0958,-0.0886,-0.0869,-0.085,-0.0785,-0.0775,-0.0698,-0.0694,-0.059,-0.0598,-0.0604,-0.0605,-0.0541,-0.0546,-0.0337,-0.0309,-0.0489,-0.0487,-0.0486,0,-0.1163,-0.1106,-0.1066,-0.1031,-0.1008,-0.0951,-0.0915,-0.0915,-0.0876,-0.0826,-0.0781,-0.0719,-0.0668,-0.0563,-0.0541,-0.0482,-0.0488,-0.0419,-0.0479,-0.048,-0.0485,-0.0488,-0.0482,-0.0407,-0.0405,-0.0403,-0.0402,0,-0.1003,-0.1002,-0.0951,-0.0899,-0.0856,-0.0814,-0.0774,-0.0744,-0.0738,-0.0694,-0.0629,-0.059,-0.0513,-0.045,-0.0392,-0.0368,-0.0382,-0.0384,-0.0365,-0.0362,-0.0368,-0.0363,-0.0571,-0.0388,-0.0389,-0.039,-0.0391,-0.0391,-0.0887,-0.0838,-0.0802,-0.0744,-0.0715,-0.0678,-0.0629,-0.0612,-0.0559,-0.0497,-0.05,-0.0428,-0.0389,-0.0312,-0.0285,-0.0227,-0.0249,-0.0223,-0.0216,-0.0209,-0.0203,-0.0379,-0.0217,-0.0217,-0.0218,-0.0218,-0.0218,0,-0.0727,-0.0706,-0.0653,-0.0598,-0.0552,-0.0574,-0.0531,-0.049,-0.0428,-0.0391,-0.0342,-0.0266,-0.0206,-0.018,-0.012,-0.0079,-0.0084,-0.0063,-0.0065,-0.0059,-0.0187,-0.0208,-0.0059,-0.0059,-0.0059,-0.0059,-0.0059,-0.0059,-0.0638,-0.0555,-0.055,-0.0452,-0.0431,-0.0363,-0.0336,-0.0301,-0.0272,-0.0188,-0.0138,-0.0123,-0.0089,-0.0027,0.0028,0.0034,0.0058,0.0083,0.0086,-0.0034,-0.005,-0.0065,-0.0085,0.0088,0.0088,0.021,0.0211,0.0212]},{"header":{"parameterUnit":"m.s-1","parameterCategory":1,"la1":30.2991,"la2":30.254,"lo1":-89.0895,"lo2":-89.0444,"dy":0.0017,"dx":0.0017,"nx":28,"ny":28,"refTime":"2024-12-08T03:00:00:Z","depth":0,"parameterNumber":3,"parameterNumberName":"V-component_of_WINDS"},"data":[0,0,0,0,0,0,0,0,0,0,0,0,0,0,0,0,0,0,0,0,0,0,0,0,0,0,0,0,0,0,0,0,0,0,0,0,0,0,0,0,0,0,0,0,0,0,0,0,0,0,0,0,0,0,0,0,0,0,2.1795,2.1795,0,2.1753,2.1752,2.1752,2.1663,2.1661,2.166,2.1658,2.1614,2.1615,2.1615,0,0,0,0,0,0,0,0,0,0,0,0,0,2.1803,2.1803,2.1795,2.1795,2.1794,2.1753,2.1752,2.1751,2.1663,2.1661,2.1659,2.1657,2.1614,2.1615,2.1615,0,0,0,0,0,0,0,0,0,0,0,0,0,2.1784,2.1803,2.1796,2.1745,2.1741,2.1753,2.1752,2.1751,2.1664,2.1661,2.1659,2.1656,2.1614,2.1615,2.1615,2.1673,0,0,2.1617,2.1618,0,0,0,0,0,0,0,0,2.1785,2.1784,2.1753,2.1749,2.1743,2.171,2.1738,2.1725,2.1665,2.1693,2.1658,2.1655,2.1648,2.1646,2.1644,2.1671,2.1669,2.1617,2.1618,2.1618,2.1618,0,0,0,0,0,0,0,2.1787,2.1785,2.1778,2.1753,2.1747,2.1726,2.172,2.1736,2.1686,2.169,2.1684,2.168,2.1645,2.1643,2.1642,2.1668,2.1617,2.1618,2.1619,2.1619,2.1741,2.1744,0,0,0,0,0,0,2.1795,2.1787,2.178,2.1777,2.1758,2.1728,2.1721,2.1724,2.1686,2.1677,2.1682,2.1676,2.1643,2.1641,2.164,2.1705,2.1618,2.1619,2.1619,2.1738,2.1742,2.1745,0,0,0,0,0,0,2.1796,2.1795,2.1781,2.178,2.1777,2.173,2.1734,2.1724,2.1722,2.168,2.167,2.1689,2.1641,2.1639,2.1665,2.1702,2.1619,2.162,2.1735,2.1739,2.1743,2.1834,0,0,0,0,0,0,2.1796,2.1796,2.1816,2.1781,2.1777,2.1807,2.1736,2.1725,2.1724,2.1715,2.1684,2.1676,2.1639,2.1665,2.1666,2.1701,2.162,2.1731,2.1737,2.1742,2.1828,2.1841,2.1853,0,0,0,0,0,2.1797,2.1844,2.1818,2.1818,2.1802,2.1809,2.1807,2.1763,2.1727,2.1748,2.1721,2.1677,2.1699,2.1668,2.1669,2.1705,2.1729,2.1735,2.1742,2.1822,2.1839,2.1852,0,0,0,0,0,0,2.1883,2.1838,2.1809,2.1846,2.1832,2.1794,2.1818,2.1782,2.1778,2.177,2.1717,2.171,2.1744,2.1727,2.1694,2.1759,2.1707,2.1714,2.1768,2.1783,2.1795,2.1797,2.1621,0,0,0,0,0,2.1907,2.1916,2.1876,2.1913,2.1908,2.1865,2.1866,2.1835,2.1818,2.1812,2.1786,2.1772,2.1776,2.1779,2.178,2.1827,2.1818,2.1852,2.1864,2.1875,2.188,2.1904,2.1918,2.1766,2.1766,2.1765,0,0,2.1955,2.1932,2.1941,2.193,2.1915,2.1927,2.186,2.1875,2.1883,2.1814,2.1836,2.1818,2.1799,2.1836,2.1851,2.1823,2.1922,2.1883,2.1891,2.1891,2.1912,2.1927,2.194,2.177,2.1769,2.1768,0,0,2.2048,2.2032,2.206,2.2048,2.2028,2.2,2.2007,2.1975,2.1961,2.1983,2.1932,2.1942,2.1949,2.1937,2.1933,2.2026,2.1986,2.2028,2.2092,2.2116,2.2128,2.2138,2.217,2.2183,2.2035,2.2035,2.2035,0,2.211,2.2125,2.208,2.2098,2.2095,2.2035,2.2064,2.2054,2.2035,2.2035,2.2005,2.2014,2.1997,2.203,2.2053,2.2052,2.2059,2.203,2.213,2.2139,2.2148,2.2179,2.2191,2.204,2.2039,2.2039,2.2038,0,2.2202,2.2214,2.224,2.2223,2.2224,2.2247,2.2207,2.2213,2.2182,2.2158,2.2182,2.2161,2.2156,2.2163,2.2133,2.2193,2.2176,2.2139,2.2085,2.2169,2.2196,2.2208,2.2047,2.2046,2.2044,2.2043,0,0,2.2344,2.2306,2.2316,2.2308,2.2283,2.2291,2.2313,2.231,2.2316,2.2306,2.2323,2.2333,2.2299,2.2294,2.2262,2.2284,2.2359,2.2244,2.2242,2.2265,2.2423,2.245,2.2464,2.2333,2.2335,2.2337,2.2424,0,2.243,2.2464,2.2426,2.2468,2.2478,2.2424,2.2443,2.2431,2.2409,2.2416,2.2392,2.2399,2.2354,2.2351,2.237,2.2346,2.2389,2.2339,2.2348,2.2349,2.2352,2.2478,2.2506,2.2589,2.2435,2.2437,2.2438,0,2.2533,2.2529,2.2573,2.2547,2.2549,2.2567,2.2562,2.2569,2.2554,2.2538,2.2534,2.2497,2.2518,2.2468,2.2496,2.2462,2.2464,2.2454,2.2456,2.2453,2.2397,2.2477,2.2614,2.2626,2.2455,2.2453,2.2452,0,2.263,2.2636,2.2663,2.2659,2.263,2.2644,2.2632,2.2615,2.2616,2.2613,2.2613,2.2612,2.2611,2.2611,2.2575,2.2542,2.2608,2.2555,2.2594,2.2595,2.2607,2.2607,2.2745,2.2613,2.2613,2.2613,2.2612,0,2.2728,2.2757,2.2707,2.2723,2.2754,2.2712,2.2744,2.2727,2.2713,2.2726,2.268,2.2693,2.2646,2.2654,2.2627,2.2654,2.2655,2.2642,2.2633,2.2644,2.2646,2.2643,2.2635,2.2616,2.2615,2.2615,2.2614,0,2.284,2.2808,2.2834,2.2806,2.2799,2.2824,2.2799,2.2814,2.2791,2.2808,2.281,2.2774,2.2782,2.2748,2.2749,2.2731,2.2772,2.2755,2.2776,2.277,2.2811,2.2808,2.2951,2.2968,2.2827,2.2828,2.2829,0,2.2903,2.2924,2.2899,2.2904,2.2896,2.2905,2.2906,2.2867,2.287,2.2857,2.2874,2.2878,2.2879,2.2894,2.2869,2.287,2.2852,2.2903,2.2852,2.2863,2.2851,2.285,2.2852,2.2912,2.2914,2.2916,2.2917,0,2.3019,2.3003,2.3006,2.3006,2.3009,2.3007,2.3001,2.3008,2.2966,2.2972,2.298,2.2981,2.2984,2.2989,2.2986,2.2975,2.2939,2.2934,2.2942,2.2952,2.2964,2.2957,2.2803,2.2929,2.2928,2.2927,2.2927,2.2926,2.3107,2.3123,2.3109,2.3115,2.3107,2.3104,2.3116,2.3097,2.3103,2.3102,2.3079,2.3092,2.3079,2.3071,2.3064,2.3074,2.305,2.3063,2.3066,2.307,2.3076,2.2965,2.3073,2.3073,2.3073,2.3072,2.3072,0,2.3218,2.3207,2.3214,2.3208,2.3214,2.3182,2.3175,2.3181,2.3193,2.3185,2.3188,2.3198,2.3203,2.318,2.3182,2.3195,2.3179,2.3197,2.3194,2.3192,2.3098,2.3089,2.321,2.321,2.321,2.321,2.321,2.321,2.3277,2.3303,2.3286,2.3309,2.3298,2.331,2.3309,2.3306,2.3299,2.3312,2.3317,2.3302,2.3288,2.329,2.3294,2.3287,2.3289,2.3313,2.3301,2.3212,2.3199,2.3186,2.3177,2.3314,2.3315,2.3394,2.3394,2.3395]}]]